Location: Roland
(31.1349°N, 85.4372°W)
Time: 00:26:05
(UTC+00:00)

S-56A Canister/Altair - Pass Details

Date: 27 April 2021
Orbit: 632 x 2500 km, 38.9° (Epoch: 06 May)

Event Time Altitude Azimuth Distance (km) Brightness Sun altitude
Rises 04:02:15 0° 268° (W) 5,381 12.2 -39.3°
Reaches altitude 10° 04:06:23 10° 273° (W) 4,093 11.5 -39.7°
Enters shadow 04:16:05 52° 342° (NNW) 1,568 9.1 -40.7°
